Stations météo

réclame
Mon MeteoGroup
Regensburg, Allemagne (10776): Température de l'air & dewpoint: 12.02.2019 17:00:00 - 18.02.2019 17:00:00 (CET)Regensburg, Allemagne (10776): Température de l'air 5cm & Température de l'air -5cm: 12.02.2019 17:00:00 - 18.02.2019 17:00:00 (CET)Regensburg, Allemagne (10776): Température de l'air -20cm & Température de l'air -100cm: 12.02.2019 17:00:00 - 18.02.2019 17:00:00 (CET)Regensburg, Allemagne (10776): Vitesse du vent & gusts: 12.02.2019 17:00:00 - 18.02.2019 17:00:00 (CET)Regensburg, Allemagne (10776): Direction du vent: 12.02.2019 17:00:00 - 18.02.2019 17:00:00 (CET)Regensburg, Allemagne (10776): reduced air pressure: 12.02.2019 17:00:00 - 18.02.2019 17:00:00 (CET)Regensburg, Allemagne (10776): visibility: 12.02.2019 17:00:00 - 18.02.2019 17:00:00 (CET)Regensburg, Allemagne (10776): Ensoleillement: 12.02.2019 17:00:00 - 18.02.2019 17:00:00 (CET)Regensburg, Allemagne (10776): Quantités de précipitations: 12.02.2019 17:00:00 - 18.02.2019 17:00:00 (CET)
Date & Time tt [°C] td [°C] tt 5cm [°C] tt -5cm [°C] tt -20cm [°C] tt -100cm [°C] ff [km/h] ff [knt] fx [km/h] fx [knt] dd ppp [hPa] vv [km] sd [min] rr [mm]
18.02.2019 17:00:00 10,5 -2,7 5,7 0,0 0,4 3,2 5 3 10 5 SE 1019,8 46 60 0,0
18.02.2019 16:00:00 11,4 -2,9 9,1 -0,1 0,4 3,2 4 2 10 6 SSE 1020,0 45 60 0,0
18.02.2019 15:00:00 12,2 -1,4 11,1 -0,1 0,4 3,2 6 3 14 8 SSE 1020,4 41 60 0,0
18.02.2019 14:00:00 9,8 -2,1 9,4 -0,1 0,4 3,2 8 4 18 10 SE 1021,5 53 60 0,0
18.02.2019 13:00:00 8,3 -2,7 7,4 -0,2 0,4 3,2 9 5 16 9 SSE 1022,7 43 60 0,0
18.02.2019 12:00:00 6,7 -1,9 5,9 -0,3 0,4 3,2 5 3 11 6 SSE 1024,0 35 60 0,0
18.02.2019 11:00:00 3,9 -2,6 3,8 -0,4 0,4 3,2 7 4 12 7 SSE 1024,8 28 60 0,0
18.02.2019 10:00:00 1,1 -2,9 -0,3 -0,7 0,4 3,2 7 4 11 6 SE 1025,3 23 60 0,0
18.02.2019 09:00:00 -2,5 -4,4 -5,1 -0,9 0,4 3,2 2 1 5 3 N 1026,2 16 53 0,0
18.02.2019 08:00:00 -4,8 -5,7 -6,1 -0,8 0,4 3,2 4 2 5 3 NNW 1026,6 12 0 0,0
18.02.2019 07:00:00 -4,7 -5,5 -6,4 -0,5 0,4 3,2 4 2 7 4 NNE 1026,5 10 0 0,0
18.02.2019 06:00:00 -4,3 -5,0 -5,5 -0,2 0,4 3,2 4 2 6 3 N 1026,4 11 0 0,0
18.02.2019 05:00:00 -4,1 -4,8 -5,2 -0,1 0,4 3,2 5 3 5 3 NNE 1026,4 14 0 0,0
18.02.2019 04:00:00 -3,8 -4,5 -5,1 0,0 0,4 3,2 3 2 6 3 NNE 1026,4 9 0 0,0
18.02.2019 03:00:00 -3,5 -4,3 -4,7 0,0 0,4 3,2 2 1 6 3 NNE 1026,9 16 0 0,0
18.02.2019 02:00:00 -2,7 -3,5 -4,0 0,0 0,4 3,2 4 2 5 3 N 1027,1 13 0 0,0
18.02.2019 01:00:00 -2,1 -3,1 -3,5 0,0 0,4 3,2 3 2 4 2 NNE 1027,2 20 0 0,0
18.02.2019 00:00:00 -1,5 -2,8 -3,5 0,0 0,4 3,2 3 2 4 2 N 1026,9 23 0 0,0
17.02.2019 23:00:00 -1,1 -2,8 -3,0 0,0 0,4 3,2 0 0 6 3 N 1027,1 30 0 0,0
17.02.2019 22:00:00 -0,5 -2,2 -2,6 0,0 0,4 3,2 4 2 6 4 NNW 1027,1 23 0 0,0
17.02.2019 21:00:00 0,9 -1,4 -2,3 0,0 0,4 3,2 3 2 5 3 N 1026,7 22 0 0,0
17.02.2019 20:00:00 2,9 -0,4 -2,3 -0,1 0,4 3,2 1 1 4 2 ESE 1026,3 24 0 0,0
17.02.2019 19:00:00 4,5 -0,3 -1,7 -0,1 0,4 3,2 3 2 10 6 SSE 1025,9 27 0 0,0
17.02.2019 18:00:00 7,7 0,4 3,0 -0,1 0,4 3,2 8 4 14 8 SE 1025,3 42 4 0,0
17.02.2019 17:00:00 9,8 -0,1 6,6 -0,1 0,4 3,2 8 5 17 9 SE 1024,9 45 60 0,0
17.02.2019 16:00:00 10,4 -0,5 8,7 -0,1 0,4 3,2 10 6 18 10 SE 1025,4 50 60 0,0
17.02.2019 15:00:00 10,3 -0,2 9,3 -0,1 0,4 3,2 10 5 18 10 SE 1026,0 42 60 0,0
17.02.2019 14:00:00 9,6 -0,7 9,0 -0,1 0,4 3,2 11 6 20 11 SE 1026,5 63 60 0,0
17.02.2019 13:00:00 7,6 -1,2 6,5 -0,2 0,4 3,2 11 6 19 10 SE 1027,7 35 60 0,0
17.02.2019 12:00:00 5,6 -1,6 5,0 -0,3 0,4 3,2 10 6 17 9 SSE 1028,8 28 60 0,0
17.02.2019 11:00:00 3,7 -2,0 3,1 -0,4 0,4 3,2 9 5 16 9 SE 1029,5 31 60 0,0
17.02.2019 10:00:00 1,2 -2,3 -0,3 -0,7 0,4 3,2 10 6 16 9 SSE 1030,0 25 60 0,0
17.02.2019 09:00:00 -1,5 -3,7 -4,1 -0,9 0,4 3,2 4 2 8 5 SSE 1030,7 16 51 0,0
17.02.2019 08:00:00 -4,3 -5,1 -6,3 -0,9 0,4 3,2 3 1 5 3 SE 1030,9 11 0 0,0
17.02.2019 07:00:00 -4,4 -5,2 -5,7 -0,8 0,4 3,2 3 2 5 3 N 1030,5 10 0 0,0
17.02.2019 06:00:00 -3,9 -4,8 -6,1 -0,6 0,4 3,3 0 0 4 2 N 1030,1 11 0 0,0
17.02.2019 05:00:00 -3,5 -4,2 -5,8 -0,4 0,4 3,3 4 2 6 3 NW 1030,4 8 0 0,0
17.02.2019 04:00:00 -3,6 -4,3 -5,0 -0,2 0,4 3,3 5 3 7 4 NE 1030,5 9 0 0,0
17.02.2019 03:00:00 -2,9 -3,6 -4,3 -0,1 0,4 3,3 5 3 6 3 NNE 1030,5 8 0 0,0
17.02.2019 02:00:00 -2,4 -3,1 -5,4 0,0 0,4 3,3 3 1 7 4 N 1030,7 9 0 0,0
17.02.2019 01:00:00 -2,3 -3,0 -3,9 0,0 0,4 3,3 4 2 5 3 N 1030,7 8 0 0,0
17.02.2019 00:00:00 -1,7 -2,5 -4,5 0,0 0,4 3,3 3 2 5 3 NNE 1030,8 10 0 0,0
16.02.2019 23:00:00 -1,1 -2,1 -3,5 -0,1 0,4 3,3 0 0 5 3 N 1030,8 13 0 0,0
16.02.2019 22:00:00 0,0 -1,3 -2,7 -0,1 0,4 3,3 0 0 4 2 N 1030,8 16 0 0,0
16.02.2019 21:00:00 0,7 -0,8 -3,6 -0,1 0,4 3,3 0 0 5 3 N 1030,8 20 0 0,0
16.02.2019 20:00:00 2,7 0,2 -2,0 -0,1 0,4 3,3 0 0 5 3 N 1030,5 22 0 0,0
16.02.2019 19:00:00 4,5 0,9 -1,9 -0,1 0,4 3,3 5 3 9 5 SE 1030,3 29 0 0,0
16.02.2019 18:00:00 6,3 1,0 -0,1 -0,1 0,4 3,3 7 4 16 9 SE 1029,6 36 1 0,0
16.02.2019 17:00:00 8,5 0,9 5,7 -0,1 0,4 3,3 9 5 18 10 ESE 1029,1 44 60 0,0
16.02.2019 16:00:00 9,5 0,5 7,6 -0,1 0,4 3,3 11 6 19 11 SE 1029,2 43 60 0,0
16.02.2019 15:00:00 9,2 0,1 7,9 -0,1 0,4 3,3 12 7 20 11 SE 1029,6 43 60 0,0
16.02.2019 14:00:00 8,2 -0,4 6,7 -0,1 0,4 3,3 11 6 18 10 SE 1030,4 38 60 0,0
16.02.2019 13:00:00 7,6 -0,4 6,1 -0,2 0,4 3,3 9 5 24 13 SSE 1031,4 31 60 0,0
16.02.2019 12:00:00 5,2 -1,4 4,4 -0,2 0,4 3,3 16 8 22 12 SSE 1032,2 28 60 0,0
16.02.2019 11:00:00 3,5 -1,7 3,0 -0,3 0,4 3,3 11 6 19 10 SSE 1032,5 31 60 0,0
16.02.2019 10:00:00 0,3 -2,7 -1,8 -0,6 0,4 3,3 2 1 4 2 SSW 1033,1 24 60 0,0
16.02.2019 09:00:00 -2,4 -3,3 -5,7 -0,7 0,5 3,3 2 1 7 4 NNE 1033,8 17 40 0,0
16.02.2019 08:00:00 -3,8 -4,5 -5,5 -0,6 0,5 3,3 6 3 9 5 NNW 1033,9 12 0 0,0
16.02.2019 07:00:00 -4,0 -4,8 -5,3 -0,5 0,5 3,3 6 4 10 5 NNW 1033,3 11 0 0,0
16.02.2019 06:00:00 -3,7 -4,5 -5,1 -0,5 0,5 3,3 8 5 11 6 N 1033,2 10 0 0,0
16.02.2019 05:00:00 -2,8 -3,6 -5,3 -0,4 0,5 3,3 10 6 13 7 NNE 1032,9 15 0 0,0
16.02.2019 04:00:00 -2,7 -3,3 -4,3 -0,2 0,5 3,3 10 5 12 7 N 1032,9 11 0 0,0
16.02.2019 03:00:00 -3,1 -3,8 -4,4 -0,1 0,5 3,3 8 4 10 5 N 1033,5 6 0 0,0
16.02.2019 02:00:00 -2,6 -3,2 -4,5 -0,1 0,5 3,3 6 3 8 4 N 1033,8 5 0 0,0
16.02.2019 01:00:00 -2,1 -2,8 -4,3 0,0 0,5 3,3 6 3 10 5 N 1034,1 7 0 0,0
16.02.2019 00:00:00 -1,5 -2,2 -4,2 0,0 0,5 3,3 9 5 11 6 NNE 1034,0 12 0 0,0
15.02.2019 23:00:00 -0,4 -1,3 -3,9 0,0 0,5 3,3 9 5 11 6 N 1034,2 19 0 0,0
15.02.2019 22:00:00 -0,4 -1,5 -2,9 0,0 0,5 3,3 8 4 10 5 N 1034,4 15 0 0,0
15.02.2019 21:00:00 1,1 -0,6 -2,5 -0,1 0,5 3,3 6 3 8 4 N 1034,4 18 0 0,0
15.02.2019 20:00:00 2,5 0,1 -1,8 -0,1 0,5 3,3 4 2 7 4 N 1034,5 18 0 0,0
15.02.2019 19:00:00 3,9 0,7 -2,3 -0,1 0,5 3,3 4 2 9 5 SSE 1034,4 20 0 0,0
15.02.2019 18:00:00 5,9 1,2 -0,6 -0,1 0,5 3,3 5 3 14 8 SE 1034,1 24 0 0,0
15.02.2019 17:00:00 8,7 1,5 4,8 -0,1 0,5 3,3 10 5 14 8 SE 1033,7 27 59 0,0
15.02.2019 16:00:00 10,1 0,3 7,3 -0,1 0,5 3,3 9 5 12 6 SE 1033,9 28 60 0,0
15.02.2019 15:00:00 10,4 -0,5 7,9 -0,1 0,5 3,3 6 4 9 5 S 1034,3 28 60 0,0
15.02.2019 14:00:00 9,8 -1,5 7,0 -0,1 0,5 3,3 6 3 9 5 WSW 1035,0 30 60 0,0
15.02.2019 13:00:00 8,0 -1,0 6,1 -0,1 0,5 3,3 6 3 10 5 SSW 1035,9 22 60 0,0
15.02.2019 12:00:00 5,5 -2,0 4,3 -0,2 0,5 3,3 5 3 10 6 SSE 1037,1 22 60 0,0
15.02.2019 11:00:00 3,2 -2,8 3,4 -0,2 0,5 3,3 3 2 5 3 NW 1037,8 22 60 0,0
15.02.2019 10:00:00 -0,1 -2,5 -1,4 -0,3 0,5 3,3 4 2 9 5 NNW 1038,4 17 60 0,0
15.02.2019 09:00:00 -2,6 -4,3 -5,1 -0,3 0,5 3,3 5 3 9 5 N 1038,8 12 33 0,0
15.02.2019 08:00:00 -4,1 -4,8 -5,9 -0,3 0,5 3,3 7 4 8 4 N 1038,8 12 0 0,0
15.02.2019 07:00:00 -4,3 -5,0 -6,8 -0,2 0,5 3,3 6 3 9 5 NNE 1038,6 9 0 0,0
15.02.2019 06:00:00 -4,2 -4,9 -6,8 -0,2 0,5 3,3 4 2 9 5 N 1038,4 8 0 0,0
15.02.2019 05:00:00 -3,8 -4,4 -5,5 -0,1 0,5 3,3 6 3 8 4 N 1038,7 10 0 0,0
15.02.2019 04:00:00 -3,6 -4,4 -6,0 -0,1 0,5 3,3 5 3 8 5 NNE 1038,8 12 0 0,0
15.02.2019 03:00:00 -3,4 -4,1 -5,6 0,0 0,5 3,3 5 3 8 4 N 1039,0 9 0 0,0
15.02.2019 02:00:00 -3,0 -3,7 -5,6 0,0 0,5 3,3 4 2 8 4 NNW 1039,0 10 0 0,0
15.02.2019 01:00:00 -2,6 -3,5 -5,3 0,0 0,5 3,3 5 3 8 4 NNE 1039,0 13 0 0,0
15.02.2019 00:00:00 -2,3 -3,2 -5,6 0,0 0,5 3,3 5 3 9 5 NNW 1038,9 13 0 0,0
14.02.2019 23:00:00 -1,3 -2,6 -5,1 0,0 0,5 3,3 6 3 9 5 N 1038,5 16 0 0,0
14.02.2019 22:00:00 -1,1 -2,4 -4,4 0,0 0,5 3,3 5 3 8 4 N 1038,8 18 0 0,0
14.02.2019 21:00:00 0,1 -2,0 -3,4 0,0 0,5 3,3 5 3 6 3 N 1038,3 21 0 0,0
14.02.2019 20:00:00 1,8 -1,3 -2,6 0,0 0,5 3,3 3 2 5 3 N 1038,3 24 0 0,0
14.02.2019 19:00:00 3,3 -0,6 -2,3 0,0 0,5 3,3 0 0 9 5 N 1038,1 20 0 0,0
14.02.2019 18:00:00 5,2 -0,3 -1,3 0,0 0,5 3,3 6 3 12 7 SE 1037,6 32 0 0,0
14.02.2019 17:00:00 7,3 -1,1 3,9 0,0 0,5 3,3 7 4 12 7 SE 1037,0 38 57 0,0
14.02.2019 16:00:00 8,3 -1,9 5,1 0,0 0,5 3,3 6 4 14 8 S 1036,8 51 60 0,0
14.02.2019 15:00:00 7,8 -1,6 5,6 0,0 0,5 3,3 9 5 18 10 SE 1037,5 35 60 0,0
14.02.2019 14:00:00 6,9 -2,2 5,5 0,0 0,5 3,3 8 4 16 9 SSE 1037,6 35 60 0,0
14.02.2019 13:00:00 6,6 -2,5 5,0 0,0 0,5 3,3 8 4 13 7 S 1038,3 29 59 0,0
14.02.2019 12:00:00 5,0 -1,9 3,6 0,0 0,5 3,3 4 2 19 10 ESE 1039,4 23 55 0,0
14.02.2019 11:00:00 2,6 -2,1 1,9 0,0 0,5 3,3 11 6 17 9 SE 1039,8 23 60 0,0
14.02.2019 10:00:00 0,3 -2,2 -1,0 0,0 0,5 3,3 6 4 12 7 SE 1040,3 21 42 0,0
14.02.2019 09:00:00 -1,6 -3,0 -4,3 0,0 0,4 3,3 3 1 5 3 S 1040,4 16 6 0,0
14.02.2019 08:00:00 -2,6 -3,3 -6,2 0,0 0,4 3,3 3 2 8 5 S 1040,4 16 0 0,0
14.02.2019 07:00:00 -2,9 -3,7 -6,0 0,0 0,4 3,3 0 0 5 3 N 1040,2 19 0 0,0
14.02.2019 06:00:00 -3,1 -3,9 -4,7 0,0 0,4 3,3 3 2 5 3 NNW 1039,8 21 0 0,0
14.02.2019 05:00:00 -2,6 -3,3 -5,0 0,0 0,4 3,3 3 2 5 3 SSE 1039,6 22 0 0,0
14.02.2019 04:00:00 -3,0 -3,9 -4,9 0,0 0,4 3,3 4 2 7 4 NE 1039,5 18 0 0,0
14.02.2019 03:00:00 -2,5 -3,3 -5,5 0,0 0,4 3,3 2 1 5 3 SSE 1039,4 19 0 0,0
14.02.2019 02:00:00 -1,9 -2,9 -5,5 0,0 0,4 3,3 0 0 6 4 N 1039,6 25 0 0,0
14.02.2019 01:00:00 -1,4 -2,6 -5,0 0,0 0,4 3,3 5 3 6 4 SSE 1039,1 26 0 0,0
14.02.2019 00:00:00 -1,5 -2,7 -5,3 0,0 0,4 3,3 4 2 6 3 S 1039,1 25 0 0,0
13.02.2019 23:00:00 -0,5 -2,1 -4,0 0,0 0,4 3,3 5 3 7 4 SSE 1038,7 24 0 0,0
13.02.2019 22:00:00 -0,2 -2,2 -5,1 0,0 0,4 3,3 2 1 6 3 SSE 1038,9 29 0 0,0
13.02.2019 21:00:00 0,7 -1,9 -4,3 0,0 0,4 3,3 0 0 4 2 N 1038,9 30 0 0,0
13.02.2019 20:00:00 1,7 -1,9 -2,8 0,0 0,4 3,3 4 2 6 3 N 1039,1 31 0 0,0
13.02.2019 19:00:00 3,5 -1,3 -2,6 0,0 0,4 3,3 2 1 7 4 WNW 1038,3 38 0 0,0
13.02.2019 18:00:00 4,6 -1,5 -1,7 0,0 0,4 3,3 5 3 7 4 SSW 1038,0 50 0 0,0
13.02.2019 17:00:00 6,4 -3,0 -0,2 0,0 0,4 3,3 4 2 11 6 WNW 1037,7 70 42 0,0
13.02.2019 16:00:00 8,6 -2,5 4,2 0,0 0,4 3,3 7 4 16 9 W 1037,3 71 60 0,0
13.02.2019 15:00:00 9,1 -2,7 6,2 0,0 0,4 3,3 8 5 18 10 WNW 1037,3 68 60 0,0
13.02.2019 14:00:00 9,6 -2,0 6,9 0,0 0,4 3,3 11 6 24 13 W 1037,2 70 60 0,0
13.02.2019 13:00:00 9,1 -2,2 6,0 0,0 0,4 3,3 12 7 22 12 W 1037,6 75 60 0,0
13.02.2019 12:00:00 7,8 -3,0 5,5 0,0 0,4 3,4 8 4 16 9 W 1038,4 65 60 0,0
13.02.2019 11:00:00 5,3 -3,6 4,2 0,0 0,4 3,4 10 5 17 9 W 1039,0 75 60 0,0
13.02.2019 10:00:00 2,5 -1,9 -0,5 0,0 0,4 3,4 7 4 14 8 WSW 1039,0 37 60 0,0
13.02.2019 09:00:00 0,4 -2,3 -4,6 0,0 0,4 3,4 4 2 16 9 W 1039,3 27 12 0,0
13.02.2019 08:00:00 -0,3 -2,0 -3,4 0,0 0,4 3,4 10 5 15 8 SW 1039,2 32 0 0,0
13.02.2019 07:00:00 -0,1 -1,9 -3,3 0,0 0,4 3,4 8 4 13 7 SW 1038,7 35 0 0,0
13.02.2019 06:00:00 -0,1 -2,1 -3,5 0,0 0,4 3,4 7 4 10 5 W 1038,7 40 0 0,0
13.02.2019 05:00:00 0,4 -2,0 -4,3 0,0 0,4 3,4 4 2 14 7 WSW 1038,2 39 0 0,0
13.02.2019 04:00:00 1,6 -1,5 -0,8 0,0 0,4 3,4 4 2 10 5 W 1037,7 44 0 0,0
13.02.2019 03:00:00 1,5 -1,4 -1,3 0,0 0,4 3,4 6 3 10 6 WNW 1037,5 41 0 0,0
13.02.2019 02:00:00 1,5 -1,3 -0,5 0,0 0,4 3,4 4 2 9 5 WSW 1037,5 40 0 0,0
13.02.2019 01:00:00 1,5 -1,5 -0,9 0,0 0,4 3,4 0 0 13 7 N 1037,4 44 0 0,0
13.02.2019 00:00:00 1,6 -1,4 -1,3 0,0 0,4 3,4 9 5 18 10 W 1037,3 43 0 0,0
12.02.2019 23:00:00 1,7 -1,3 -0,3 0,0 0,4 3,4 14 8 29 16 W 1037,3 45 0 0,0
12.02.2019 22:00:00 1,9 -1,2 0,0 0,0 0,4 3,4 18 10 28 15 W 1037,1 45 0 0,0
12.02.2019 21:00:00 1,7 -1,3 -0,8 0,0 0,4 3,4 15 8 25 13 W 1037,1 41 0 0,0
12.02.2019 20:00:00 2,0 -1,0 0,1 0,0 0,4 3,4 16 9 29 15 W 1036,5 47 0 0,0
12.02.2019 19:00:00 1,9 -1,0 0,0 0,0 0,4 3,4 15 8 23 12 W 1036,1 42 0 0,0
12.02.2019 18:00:00 2,0 -1,1 -0,1 0,0 0,4 3,4 15 8 25 13 W 1035,3 47 0 0,0
12.02.2019 17:00:00 2,2 -0,9 0,3 0,0 0,4 3,4 17 9 30 16 W 1034,5 45 0 0,0

tt = Température de l'air
td = dewpoint
tt 5cm = Température de l'air 5cm
tt -5cm = Température de l'air -5cm
tt -20cm = Température de l'air -20cm
tt -100cm = Température de l'air -100cm
ff = Vitesse du vent
fx = gusts
dd = Direction du vent
ppp = reduced air pressure
vv = visibility
sd = Ensoleillement
rr = Quantités de précipitations

stations d'obs. à proximité